Home   Weather   Forchheim   Past weeks

Flag for Germany Past Weather in Forchheim, Bavaria, Germany — Yesterday and Last 2 Weeks

43 °F


Feels Like: 43 °F
Forecast: 39 / 47 °F
Wind: 2 mph from North

Location: Nuernberg

Current Time: Oct 21, 2016 at 8:36:02 PM

Latest Report: Oct 21, 2016 at 8:20 PM

Visibility: 10 mi

Pressure: 29.98 "Hg

Humidity: 93%

Dew Point: 41 °F

Location of ForchheimLocation

Past Weather in Forchheim — Graph


Forchheim Temperature Yesterday

Maximum temperature yesterday: 46 °F (at 12:20 AM)
Minimum temperature yesterday: 39 °F (at 7:20 AM)
Average temperature yesterday: 43 °F

High & Low Weather Summary for the Past Weeks

High66 °F (Oct 16, 2:20 PM)100% (Oct 6, 7:20 PM)30.24 "Hg (Oct 6, 7:20 PM)
Low30 °F (Oct 10, 4:20 AM)47% (Oct 10, 5:50 PM)29.71 "Hg (Oct 14, 6:20 PM)
Average46 °F90%30.07 "Hg
* Reported Oct 6 7:20 PM — Oct 21 7:20 PM, Forchheim, Weather by CustomWeather, © 2016

Note: Actual official high and low records may vary slightly from our data, if they occured in-between our weather recording intervals... More about our weather records


Forchheim Weather History for the Previous 24 Hours

Scroll right to see more
Time TempWeatherWind HumidityBarometerVisibility
7:20 PM
Fri, Oct 21
43 °FPassing clouds.5 mph87%29.98 "HgN/A
6:50 PM43 °FPassing clouds.5 mph93%29.98 "HgN/A
6:20 PM43 °FPassing clouds.3 mph93%29.98 "HgN/A
5:50 PM45 °FPartly sunny.3 mph87%29.98 "HgN/A
5:20 PM45 °FScattered clouds.1 mph87%29.98 "HgN/A
4:50 PM45 °FScattered clouds.9 mph87%29.98 "HgN/A
4:20 PM45 °FPartly sunny.3 mph87%29.95 "HgN/A
3:50 PM45 °FSprinkles. Broken clouds.10 mph87%29.95 "HgN/A
3:20 PM45 °FBroken clouds.9 mph87%29.95 "HgN/A
2:50 PM45 °FBroken clouds.12 mph87%29.95 "HgN/A
2:20 PM46 °FBroken clouds.13 mph76%29.95 "HgN/A
1:50 PM45 °FBroken clouds.9 mph87%29.95 "HgN/A
1:20 PM46 °FBroken clouds.9 mph82%29.95 "HgN/A
12:50 PM46 °FBroken clouds.3 mph87%29.95 "HgN/A
12:20 PM45 °FPartly sunny.2 mph87%29.95 "HgN/A
11:50 AM43 °FPartly sunny.2 mph93%29.95 "HgN/A
11:20 AM43 °FPartly sunny.3 mph93%29.95 "HgN/A
10:50 AM41 °FPartly sunny.3 mph100%29.95 "HgN/A
10:20 AM41 °FBroken clouds.8 mph100%29.95 "HgN/A
9:50 AM41 °FPartly sunny.8 mph100%29.95 "HgN/A
9:20 AM41 °FPartly sunny.7 mph100%29.95 "HgN/A
8:50 AM41 °FPartly sunny.6 mph100%29.92 "HgN/A
8:20 AM41 °FPartly sunny.3 mph100%29.92 "HgN/A
7:50 AM41 °FBroken clouds.6 mph100%29.92 "HgN/A
7:20 AM41 °FPartly cloudy.6 mph100%29.92 "HgN/A
6:50 AM41 °FPassing clouds.7 mph100%29.89 "HgN/A
6:20 AM41 °FPassing clouds.8 mph100%29.89 "HgN/A
5:50 AM41 °FPartly cloudy.2 mph100%29.89 "HgN/A
5:20 AM41 °FPartly cloudy.3 mph100%29.89 "HgN/A
4:50 AM41 °FLight rain. Overcast.3 mph100%29.89 "HgN/A
4:20 AM41 °FLight rain. Mostly cloudy.3 mph100%29.89 "HgN/A
3:50 AM41 °FOvercast.2 mph100%29.89 "HgN/A
3:20 AM41 °FLight rain. Low clouds.1 mph100%29.86 "HgN/A
2:50 AM41 °FLow clouds.2 mph100%29.89 "HgN/A
2:20 AM41 °FLight rain. Low clouds.3 mph100%29.89 "Hg6 mi
1:50 AM41 °FLight rain. Mostly cloudy.2 mph100%29.86 "Hg4 mi
1:20 AM43 °FRain. Mostly cloudy.2 mph100%29.86 "Hg4 mi
12:50 AM43 °FRain. Mostly cloudy.2 mph100%29.89 "Hg4 mi
12:20 AM43 °FRain. Mostly cloudy.1 mph100%29.89 "Hg6 mi
11:50 PM
Thu, Oct 20
43 °FLight rain. Passing clouds.2 mph100%29.89 "HgN/A
11:20 PM43 °FLight rain. Passing clouds.2 mph100%29.89 "HgN/A
10:50 PM43 °FLight rain. Overcast.2 mph100%29.89 "HgN/A
10:20 PM43 °FLight rain. Partly cloudy.3 mph100%29.89 "HgN/A
9:50 PM41 °FLight rain. Mostly cloudy.3 mph100%29.89 "HgN/A
9:20 PM43 °FPassing clouds.2 mph100%29.89 "HgN/A
8:50 PM43 °FPassing clouds.3 mph100%29.89 "HgN/A
8:20 PM43 °FLight rain. Passing clouds.3 mph100%29.89 "HgN/A
Weather by CustomWeather, © 2016

See weather overviewHow to use our weather pages